ECMWFNIL_sfc_gust_057.txt.gz
Wind_Gust
13 11 12 10 10 11 11 10 7 10 6 6 9 5 7 4 3 6 6 6 6 8 6 5 5 6 5 5 4 6 5 6 5 5 7 8 7 8 8 6 4 7
11 11 10 10 9 8 9 11 9 11 8 5 5 6 2 4 3 4 7 7 6 6 5 5 6 6 5 5 4 7 6 6 6 3 9 7 5 6 6 6 7 5
9 9 12 12 13 9 9 7 9 8 9 6 6 5 5 3 6 5 6 7 7 5 4 5 6 4 5 4 4 6 7 7 7 4 9 7 6 8 5 6 6 6
8 11 11 11 11 11 9 10 7 9 8 9 7 6 7 5 5 6 6 6 6 4 3 4 5 4 4 4 5 6 5 6 4 5 8 5 5 8 7 7 7 7
11 9 10 12 11 12 11 11 10 9 9 9 7 6 9 7 6 6 6 5 5 5 3 3 3 5 4 5 5 6 5 6 3 4 9 6 4 6 4 8 8 9
11 12 13 13 13 14 13 12 11 10 9 7 8 7 7 7 7 7 7 7 4 5 4 3 4 4 4 4 5 6 5 6 3 5 8 6 5 4 4 6 8 8
11 10 11 12 13 14 15 13 10 9 10 9 7 8 7 7 6 7 7 6 6 4 5 4 3 3 3 3 4 4 4 4 4 6 8 4 5 5 4 5 7 7
8 7 11 10 11 10 12 11 11 11 10 8 8 7 8 8 7 6 6 7 6 6 4 4 4 3 2 3 3 2 2 3 4 6 6 3 3 4 4 6 6 8
9 8 8 10 12 11 12 12 10 9 9 11 8 7 5 8 7 7 6 6 6 5 5 4 3 3 2 3 2 3 2 1 2 4 5 4 4 3 3 3 7 7
12 12 11 10 13 12 13 11 10 8 7 8 8 8 8 5 7 8 6 5 6 5 4 4 4 3 2 2 4 3 3 3 1 2 2 2 3 3 2 4 5 6
11 13 13 10 11 9 8 7 6 4 6 8 7 7 7 7 6 6 7 6 7 6 5 6 6 5 4 2 3 4 4 3 3 3 3 3 3 3 4 4 3 4
14 13 14 13 11 10 7 4 4 4 6 7 9 9 8 8 10 7 9 9 7 8 7 7 5 6 6 7 7 6 5 4 4 4 4 3 2 2 2 2 5 4
15 14 14 13 11 8 4 4 6 8 8 10 8 8 9 10 9 11 9 9 9 7 7 6 6 6 6 6 5 5 5 5 4 3 2 3 2 2 2 3 4 5
14 14 13 13 15 11 11 12 8 7 7 7 7 9 7 8 10 9 7 6 7 6 6 6 6 6 4 4 5 5 5 4 5 4 4 3 2 2 1 2 3 3
11 12 14 15 19 16 15 12 9 8 5 5 6 7 8 5 5 7 6 5 4 5 4 4 6 8 7 7 6 5 5 6 5 5 5 4 2 1 1 1 2 1
11 14 14 13 15 13 8 4 3 4 6 6 6 6 6 5 5 5 8 8 7 5 5 5 7 6 8 12 10 11 9 8 6 6 7 7 6 4 2 3 3 1
13 8 7 8 7 10 8 6 6 5 5 4 3 2 5 5 5 5 5 6 7 9 9 8 8 9 9 10 12 12 11 10 11 10 7 7 8 8 8 6 5 2
13 10 10 10 8 8 10 7 7 7 7 5 5 4 1 3 6 5 5 4 5 6 9 11 11 8 9 9 9 9 6 10 10 9 6 11 8 9 8 7 7 5
12 12 11 12 9 8 5 7 7 7 8 6 5 3 5 7 6 10 9 7 8 7 4 4 5 5 10 10 9 13 14 11 7 9 11 15 14 9 8 9 7 6
8 11 13 9 9 9 7 8 9 8 5 4 5 7 7 6 7 6 5 7 6 6 5 8 4 5 9 10 12 12 11 9 9 10 9 10 11 12 10 10 10 10
12 10 8 9 11 11 11 11 11 7 8 11 7 11 11 11 10 8 3 2 5 6 9 14 4 5 8 8 8 7 5 4 3 7 8 6 7 7 9 9 8 10
15 15 14 11 8 6 7 8 7 5 4 1 2 3 3 5 10 8 7 9 9 7 10 7 4 12 13 11 9 8 5 6 5 5 6 8 9 8 8 8 7 8
13 15 14 13 12 12 11 10 9 5 1 2 4 2 2 1 1 2 3 5 7 5 6 5 13 13 9 11 11 9 4 7 5 6 7 8 10 9 8 7 7 8
13 14 15 13 15 15 13 11 9 8 8 3 4 5 3 5 6 4 6 9 7 8 5 4 9 9 11 11 11 11 9 10 8 8 10 10 11 8 7 6 7 9
13 15 15 15 15 13 12 13 11 9 6 7 8 5 4 2 2 3 4 4 5 6 5 6 8 8 11 13 12 11 10 9 8 9 10 11 10 11 7 7 8 8
15 15 14 14 12 11 11 11 8 10 12 10 8 7 7 7 6 6 6 7 5 4 6 6 7 7 10 12 13 12 13 10 6 8 12 13 10 10 10 7 7 8

ECMWFNIL_sfc_gust_060.txt.gz
Wind_Gust
14 12 14 13 12 13 13 12 9 11 9 9 11 8 9 7 6 7 7 7 7 9 6 6 6 8 8 7 7 8 7 7 6 6 6 7 7 9 9 8 7 9
11 11 10 10 10 9 10 12 12 12 10 8 9 9 5 7 5 8 9 8 7 8 7 6 6 7 7 8 6 9 8 7 6 4 7 6 7 7 8 8 8 7
12 11 14 15 15 12 11 8 10 9 11 8 7 7 8 5 7 5 7 9 9 8 7 6 6 6 8 8 8 7 7 7 7 5 7 6 5 6 6 7 8 8
13 15 15 13 13 13 10 10 5 7 7 9 7 6 7 7 7 7 6 7 9 7 6 5 6 6 7 8 9 9 8 8 6 6 8 7 6 6 7 7 8 8
13 9 8 10 9 11 10 11 10 8 9 9 7 7 9 9 9 9 8 7 5 7 6 6 5 7 7 8 8 9 8 8 6 7 8 8 6 6 5 6 8 9
7 8 10 12 12 13 11 11 11 10 9 7 9 7 6 7 9 9 9 9 5 6 6 5 6 5 8 8 10 8 7 8 6 7 9 9 7 7 7 6 8 9
9 9 9 9 10 9 11 10 10 9 9 9 7 6 7 8 8 9 9 8 7 5 6 6 6 6 6 8 9 8 8 7 6 7 9 7 7 7 7 7 8 8
9 8 10 10 10 9 9 10 9 9 8 8 8 7 7 10 9 7 8 9 7 7 5 5 5 6 5 7 9 8 7 6 6 8 8 7 7 7 7 8 8 9
10 11 12 12 12 9 8 8 7 6 7 10 8 7 5 10 10 9 9 8 7 6 6 5 6 5 4 7 7 8 8 5 6 7 7 8 8 6 7 7 9 8
9 10 12 12 12 11 8 5 6 6 5 6 7 7 9 7 9 10 8 8 8 6 5 6 6 5 4 5 7 8 8 7 5 5 6 6 8 6 7 8 9 9
10 9 11 12 12 10 9 8 6 6 5 5 6 5 5 9 9 7 7 8 9 7 6 5 6 6 6 4 4 4 7 7 6 5 5 5 5 5 6 7 6 7
8 8 7 10 12 10 10 10 9 5 4 3 4 6 5 6 9 7 6 6 5 5 5 4 5 5 5 5 5 6 6 6 7 6 5 5 3 3 3 4 6 8
9 8 8 6 9 10 9 10 9 6 4 2 2 4 7 6 5 6 4 4 2 3 4 5 6 6 6 5 6 7 7 6 6 7 7 6 5 4 4 4 4 6
11 11 11 10 9 9 10 9 9 8 7 4 3 3 5 6 6 5 4 4 3 3 3 4 4 4 4 5 5 7 7 6 7 7 8 8 7 6 6 5 5 5
9 8 6 8 9 10 10 10 11 9 7 3 5 6 3 3 4 4 4 2 1 1 1 1 3 4 5 6 6 4 5 7 7 7 7 7 6 6 6 6 6 7
9 10 9 7 8 12 9 8 8 7 6 3 4 5 1 3 4 4 4 3 3 2 1 1 2 2 3 5 5 6 7 6 5 5 5 4 3 2 2 3 5 6
12 10 12 10 8 9 6 5 3 1 3 3 2 2 2 2 4 4 3 3 3 4 4 6 6 7 6 7 7 5 5 5 7 7 7 6 6 4 5 4 5 6
11 12 15 11 9 8 8 5 6 6 3 3 5 4 4 4 3 3 4 3 3 1 4 6 6 6 7 8 6 5 5 6 7 8 7 7 7 8 7 6 6 5
9 11 10 9 8 8 8 10 9 9 8 7 5 3 4 6 5 5 5 4 3 1 2 2 3 4 5 6 5 6 8 7 8 8 9 7 6 5 5 5 6 7
10 11 11 8 6 6 7 9 10 10 9 4 3 5 7 6 6 7 7 6 5 2 2 4 5 6 5 5 8 10 10 6 2 6 6 5 3 6 7 7 7 8
14 13 12 11 10 9 9 9 8 5 7 7 7 7 7 7 5 4 6 7 6 7 6 6 6 5 3 3 5 7 7 5 8 7 2 5 8 10 10 8 8 9
15 16 16 14 13 13 13 11 10 8 8 8 7 6 4 6 3 2 4 8 6 7 6 4 7 3 3 4 8 10 9 7 6 6 5 7 10 10 10 8 6 7
15 16 15 15 14 15 14 13 12 12 10 8 7 6 7 7 7 7 8 6 5 7 6 3 7 8 5 6 7 11 6 5 7 4 5 6 10 9 9 9 8 8
14 14 15 15 16 16 13 12 11 11 12 11 10 9 9 8 7 7 8 10 12 7 4 2 10 15 6 5 7 7 7 7 7 6 7 7 9 9 9 10 10 9
13 13 13 13 14 12 12 13 13 12 9 10 11 9 9 8 10 11 13 14 14 15 10 4 8 11 12 7 5 5 5 4 5 6 8 10 8 11 9 10 12 10
13 14 14 14 12 11 12 11 9 12 14 13 12 12 12 12 11 12 13 13 12 12 11 10 10 11 11 12 10 5 6 7 6 6 10 11 9 9 12 11 10 12

ECMWFNIL_sfc_gust_063.txt.gz
Wind_Gust
15 13 14 13 13 13 15 14 13 14 12 12 13 10 10 10 11 11 11 10 10 11 9 9 9 9 8 8 7 7 8 8 8 8 9 9 9 11 12 11 10 11
15 14 12 11 10 11 12 14 14 14 12 10 10 10 8 10 9 10 12 12 11 11 10 9 8 8 8 8 8 8 8 9 9 8 9 9 9 11 11 12 12 9
13 12 13 13 13 13 13 12 11 10 11 9 9 9 10 8 10 9 10 11 12 12 11 9 9 8 8 9 9 8 8 9 9 8 8 9 8 9 11 12 11 10
10 12 14 12 12 14 12 12 9 9 9 11 10 9 10 9 9 11 10 9 11 11 11 10 10 9 9 9 9 9 9 9 9 9 9 9 8 9 10 10 11 11
12 12 12 12 10 11 12 12 12 11 10 11 11 11 11 11 11 11 10 10 10 11 10 11 10 9 9 9 8 10 9 10 9 9 10 10 8 9 10 11 12 12
11 13 14 13 13 14 14 14 14 13 13 12 11 11 10 10 12 12 12 12 11 11 11 10 10 9 9 10 9 9 9 10 10 10 12 11 11 9 10 10 12 12
13 13 13 14 14 14 14 14 12 12 12 12 13 11 11 11 12 13 13 13 13 12 12 11 10 10 8 9 10 10 9 9 10 10 12 11 11 11 10 10 11 12
14 13 14 14 14 13 12 12 12 12 12 13 13 12 11 12 12 11 11 13 13 13 11 11 11 11 9 9 10 10 9 8 8 10 11 11 10 11 11 11 11 13
14 13 13 14 14 13 12 12 12 12 13 14 14 13 10 10 12 12 12 12 13 12 12 11 10 10 8 9 9 9 10 9 7 8 8 10 11 11 12 12 12 11
12 13 14 14 13 12 12 11 12 11 11 12 13 13 13 9 9 12 12 11 12 12 12 12 11 10 9 8 9 9 9 10 9 8 8 8 10 11 12 11 13 13
13 12 13 13 12 11 11 12 12 12 11 13 13 13 12 11 10 10 11 11 11 13 13 13 12 11 10 9 8 7 8 8 9 9 9 9 9 9 6 10 10 11
15 13 12 12 12 12 11 11 12 12 12 10 11 13 11 10 10 10 11 11 11 12 13 13 12 10 10 10 10 9 8 8 7 8 9 9 9 9 9 8 9 11
14 14 14 14 13 13 12 12 13 13 13 13 11 12 11 10 10 10 8 10 10 10 12 13 12 11 10 9 9 9 9 9 8 8 8 7 7 8 9 8 8 9
13 13 13 14 15 15 15 13 12 13 14 13 12 12 10 8 8 10 9 8 10 9 9 10 11 11 10 9 9 8 8 8 8 8 8 8 7 7 7 8 8 8
13 13 14 16 17 18 16 14 12 11 11 11 12 12 9 8 7 8 11 9 9 9 10 9 9 9 9 9 9 8 7 8 9 10 9 9 9 8 7 8 9 8
17 14 13 13 15 16 14 13 11 9 9 10 10 9 9 7 8 9 9 9 9 9 8 8 8 8 7 6 3 7 8 7 8 9 10 10 10 9 7 7 6 7
15 14 13 13 11 12 12 12 11 10 10 11 10 8 9 10 11 11 9 7 8 9 8 7 8 11 10 7 5 5 6 8 9 9 8 9 9 10 10 10 9 8
13 13 13 11 11 10 10 10 7 6 6 7 8 8 8 11 11 11 7 6 6 6 6 7 9 8 11 10 7 5 4 8 9 10 11 11 10 10 9 9 10 10
14 15 16 15 13 9 10 8 9 8 8 8 7 6 6 9 9 8 8 7 7 8 7 8 10 7 10 10 9 8 6 5 10 10 11 11 11 11 10 10 9 9
16 17 16 13 13 13 11 10 10 11 9 8 7 7 8 9 8 9 9 8 7 7 8 9 10 8 9 8 8 8 6 5 8 8 9 9 10 9 8 8 7 8
16 17 16 14 13 13 12 15 15 14 14 12 11 10 10 11 11 12 11 10 9 8 9 10 11 9 10 8 7 7 8 5 8 8 8 9 9 8 7 7 7 7
16 16 15 14 13 14 15 15 15 14 12 10 10 12 13 14 14 12 10 10 8 8 9 12 14 9 9 8 6 6 6 7 7 7 7 7 8 7 7 7 8 9
16 17 15 14 14 16 16 14 13 12 12 10 12 13 15 16 14 13 12 11 11 12 12 14 16 11 9 6 4 1 4 6 7 6 6 7 7 7 8 8 8 9
15 16 16 15 15 16 14 12 11 12 14 12 14 14 15 14 12 14 15 14 14 14 14 13 14 14 11 6 5 2 3 10 8 8 8 9 9 7 8 9 9 6
16 16 16 16 15 14 12 14 14 13 12 13 15 16 15 14 14 15 15 16 14 14 12 15 13 13 15 12 5 2 7 8 7 7 9 10 11 12 11 11 11 7
17 17 16 16 15 14 14 12 10 11 13 13 13 14 16 16 15 15 15 14 13 14 16 16 15 15 18 17 13 7 6 9 9 9 10 11 11 12 14 14 14 13

ECMWFNIL_sfc_gust_069.txt.gz
Wind_Gust
20 17 12 19 23 24 17 16 16 17 15 15 15 15 16 14 15 12 12 11 9 9 8 7 7 8 10 9 9 11 10 10 11 12 11 12 14 17 18 17 10 10
19 14 14 19 21 18 14 14 15 15 14 13 14 14 14 15 14 13 13 13 12 10 9 8 8 8 8 10 9 8 10 10 10 10 11 11 15 17 15 17 14 10
17 16 22 20 17 13 14 14 15 14 14 12 14 14 15 15 14 13 13 12 12 11 8 8 8 7 8 9 9 8 9 10 10 9 10 11 10 11 12 11 12 13
21 20 19 16 13 14 14 15 15 15 14 14 14 13 15 15 14 15 14 11 12 11 10 10 9 9 10 10 10 10 9 8 8 9 10 11 10 11 11 10 13 14
22 22 20 18 16 16 15 16 16 16 15 14 14 14 14 14 15 16 14 13 12 12 11 12 10 9 9 11 11 11 11 10 9 9 8 8 9 11 11 11 11 13
22 22 21 19 18 17 17 18 16 17 15 14 14 14 14 14 15 16 15 14 14 13 13 13 12 11 10 12 11 11 11 12 10 9 10 11 11 12 13 12 12 14
23 21 20 19 18 17 16 16 14 15 14 13 14 13 14 14 14 15 15 14 14 14 14 13 13 11 11 12 11 11 11 12 11 11 11 12 12 13 14 14 14 15
24 20 20 19 18 17 16 17 16 16 14 14 13 13 14 15 14 14 14 15 14 14 13 15 14 14 12 13 14 12 11 10 11 13 11 12 12 14 14 15 14 14
22 22 22 19 18 17 16 18 17 16 16 15 14 14 14 14 14 15 16 15 15 14 14 15 15 15 12 12 13 14 13 11 10 13 13 12 13 14 16 15 15 15
22 22 22 20 19 18 16 16 16 15 15 14 14 14 16 13 14 16 16 14 14 14 14 14 15 14 14 14 16 14 13 13 12 12 14 14 14 15 15 14 14 16
22 23 22 21 20 19 18 18 17 17 14 15 14 15 15 14 15 15 15 15 14 15 16 15 15 16 15 14 13 12 13 13 13 12 12 13 13 14 10 14 15 16
23 22 23 21 21 19 19 18 18 16 16 14 16 16 14 14 15 15 15 16 15 15 15 15 16 15 15 15 15 13 13 12 12 12 13 14 14 15 17 14 14 15
21 22 22 22 20 20 19 20 18 16 17 16 16 15 15 15 15 15 13 14 15 13 14 15 15 16 15 14 14 14 14 14 13 12 12 12 11 13 14 15 15 15
22 21 19 20 19 19 19 19 18 17 15 15 16 16 15 15 15 14 13 13 13 13 14 13 14 14 14 14 14 14 13 13 14 12 13 11 10 12 11 11 12 12
11 15 16 17 17 19 18 20 18 17 15 14 14 15 13 14 14 13 12 13 14 12 14 13 13 13 13 10 11 14 12 13 13 14 12 12 12 12 11 10 11 10
19 16 15 18 14 16 19 18 18 17 16 15 15 14 13 13 13 14 12 13 15 14 13 11 11 15 15 15 13 13 12 14 11 12 12 12 11 11 10 9 9 10
19 17 16 14 9 16 16 18 17 17 17 16 15 14 13 12 11 13 12 11 13 14 13 12 16 14 15 14 16 15 16 11 12 11 11 12 11 11 11 10 10 10
17 17 16 16 18 19 17 15 12 16 17 16 16 15 13 13 11 11 10 9 10 12 11 17 15 15 14 14 14 16 13 16 13 11 11 12 12 12 12 12 12 10
16 18 16 15 16 16 16 16 17 16 13 13 14 13 11 11 12 10 11 10 10 16 18 17 14 14 14 13 13 14 16 14 17 12 12 12 11 12 12 11 11 13
19 18 17 16 15 14 12 13 12 13 12 12 13 12 12 11 10 9 9 9 12 15 15 15 14 13 13 13 11 11 11 11 16 16 11 12 11 13 11 11 12 11
21 20 18 17 15 13 12 9 8 9 9 11 11 11 9 10 10 8 8 8 13 15 14 12 14 14 14 14 13 11 11 7 13 12 13 13 13 11 10 10 11 13
14 18 18 17 17 15 14 13 7 7 9 9 10 10 9 9 9 9 8 8 13 13 13 12 13 15 14 14 13 13 12 11 12 12 13 14 15 12 12 14 14 14
18 18 16 16 15 16 15 12 10 9 8 9 11 13 13 11 11 13 11 12 12 12 13 13 14 14 14 14 13 14 10 12 13 14 13 12 12 13 11 16 19 23
19 19 20 19 18 17 15 11 10 8 7 7 10 12 14 13 13 13 14 15 12 14 13 14 13 13 12 13 13 14 11 14 13 14 12 11 10 12 13 13 24 17
19 19 18 17 17 15 12 14 13 11 13 15 15 15 11 14 14 15 15 13 14 14 9 15 15 12 12 12 13 13 15 14 13 12 13 11 11 12 8 14 19 13
20 20 19 19 20 16 16 16 14 14 14 14 14 15 12 12 12 14 14 14 14 13 12 14 16 16 14 11 12 13 13 15 11 12 11 11 12 13 11 11 15 15

ECMWFNIL_sfc_gust_072.txt.gz
Wind_Gust
15 14 16 15 13 11 13 10 9 9 8 9 10 8 6 9 7 4 6 5 6 6 5 5 6 5 6 5 12 8 6 5 9 8 10 7 6 9 9 8 5 5
15 13 12 13 12 10 10 10 9 9 8 10 10 9 8 9 5 6 6 6 5 7 5 5 6 6 5 6 4 5 9 5 4 7 9 9 8 8 6 7 6 5
16 14 13 13 14 13 12 12 8 9 8 9 11 9 10 8 7 6 7 6 6 7 3 4 6 5 4 8 5 4 9 6 7 8 12 10 7 9 8 6 6 6
21 17 15 13 13 14 13 11 9 7 9 9 10 8 10 10 7 8 4 6 9 6 4 5 5 5 7 8 5 4 6 5 4 4 6 9 8 12 11 9 8 8
21 17 16 14 13 13 12 12 12 8 10 8 10 9 11 9 9 9 6 5 8 6 5 5 4 5 7 6 5 7 5 5 5 5 6 7 9 9 12 11 9 8
19 19 18 17 15 14 13 12 12 12 10 9 9 8 8 9 9 10 8 7 8 7 6 5 6 6 5 7 5 5 6 6 5 6 9 7 9 9 12 14 12 10
21 19 17 16 15 15 14 13 12 13 10 9 10 8 7 8 10 9 13 9 10 9 9 6 6 4 7 5 5 6 5 6 7 7 8 8 6 7 10 11 12 12
21 17 17 17 15 15 14 12 13 13 12 10 7 8 7 10 13 9 10 9 11 11 8 10 8 7 6 5 5 6 5 6 7 5 3 8 4 8 7 11 8 10
15 16 15 15 16 14 13 14 13 13 12 11 8 9 8 8 10 10 10 10 10 9 10 10 9 8 5 5 7 5 6 4 7 6 5 6 5 6 10 11 9 7
11 15 15 16 14 12 13 12 13 11 11 11 10 8 11 5 9 11 11 7 8 9 9 9 9 7 6 7 9 5 4 7 8 6 7 5 7 9 9 10 9 7
9 9 16 14 13 13 13 12 11 10 10 10 9 10 10 6 9 9 11 10 8 10 10 10 9 9 7 6 5 3 4 5 6 8 8 7 6 11 5 9 12 6
11 8 13 15 14 13 13 13 10 7 8 6 8 7 9 6 9 10 11 12 11 11 10 10 10 8 8 7 8 5 4 3 4 5 7 9 7 10 10 8 10 11
10 5 7 12 14 14 14 14 13 11 11 11 9 5 7 5 8 10 7 11 11 9 10 9 10 8 6 5 7 6 4 4 5 3 5 7 8 8 8 8 9 11
12 9 5 8 11 12 14 13 14 13 11 11 8 9 6 7 9 9 6 8 6 7 9 6 8 8 10 8 8 6 5 4 4 3 5 3 5 8 9 8 8 8
12 12 10 9 5 10 10 12 12 11 12 11 10 8 5 6 8 10 9 8 9 5 10 15 19 17 15 14 11 7 7 5 5 6 3 3 3 4 4 7 8 9
15 12 12 11 12 8 7 10 9 10 11 11 11 10 6 7 7 7 7 9 8 10 17 18 16 14 15 15 12 12 11 8 5 4 5 4 3 5 3 3 12 13
16 16 14 10 11 12 8 9 11 11 10 10 10 9 9 8 6 5 5 7 10 17 17 15 14 14 16 15 14 16 12 11 7 4 3 4 4 5 3 2 7 12
16 16 16 15 15 13 9 9 10 10 11 12 11 11 9 11 13 14 15 15 19 19 16 14 13 16 16 16 15 14 12 10 10 12 6 2 4 3 4 3 3 7
19 20 19 16 15 14 14 16 15 13 14 13 11 10 13 15 14 14 16 18 17 16 15 14 13 16 15 16 15 15 14 11 9 10 13 8 3 3 3 3 3 3
17 19 17 15 17 18 18 17 18 16 15 13 12 13 13 13 12 13 15 16 14 13 14 15 15 15 16 17 16 15 16 13 7 9 11 10 10 13 16 22 24 23
16 16 17 13 16 17 16 16 15 17 16 14 14 12 12 12 10 12 13 14 13 12 14 14 13 14 15 17 18 18 16 9 10 7 7 8 8 9 15 22 24 22
15 15 15 16 15 15 15 14 14 15 14 13 14 13 13 13 14 13 13 13 12 11 13 13 12 16 15 14 11 14 14 8 8 7 5 5 5 18 17 17 16 12
14 13 13 14 15 15 15 11 10 11 10 10 13 11 13 14 14 12 11 13 13 12 12 12 12 12 12 13 15 16 11 9 9 9 6 7 18 23 20 17 14 10
15 15 16 16 16 16 14 13 13 12 10 7 11 11 12 12 13 15 16 15 14 15 13 11 12 13 15 14 13 14 8 7 9 9 6 7 11 15 14 16 16 19
14 15 15 16 17 15 14 14 13 11 11 12 11 11 13 12 14 16 15 15 14 13 12 14 12 13 17 16 15 14 11 6 9 9 10 10 8 9 13 18 14 14
17 19 19 17 14 12 15 14 12 12 11 13 12 12 13 13 14 15 14 13 12 12 13 14 13 12 15 16 18 19 16 14 13 13 13 11 8 6 11 13 11 12

ECMWFNIL_sfc_gust_075.txt.gz
Wind_Gust
10 10 11 10 7 8 9 11 9 11 11 11 12 12 13 11 12 12 10 8 10 10 9 11 11 11 11 9 8 7 9 10 9 10 9 8 8 10 11 9 6 9
7 9 8 8 6 5 6 9 10 10 11 12 12 13 13 12 9 11 10 11 10 10 9 10 11 12 12 10 8 10 9 9 9 9 10 8 9 9 9 9 8 8
5 6 7 9 10 7 7 6 7 8 13 12 12 13 12 9 11 10 11 10 10 9 9 8 9 11 12 10 9 9 10 8 9 7 9 9 8 9 8 8 8 9
6 6 6 6 7 9 7 7 4 7 11 13 11 12 11 10 11 11 9 10 10 8 7 8 8 8 9 8 8 10 9 9 9 8 6 7 8 10 9 7 6 8
6 6 5 5 6 6 6 7 5 10 12 12 12 12 12 11 10 10 12 10 9 7 7 6 6 8 8 6 8 10 8 9 9 9 9 7 7 9 8 8 7 8
8 10 9 8 7 6 7 7 8 12 12 12 13 12 11 10 10 11 12 10 8 7 6 6 10 8 7 7 9 8 8 9 9 10 9 9 7 7 8 8 9 8
9 11 12 8 8 10 7 7 9 11 12 12 12 12 12 10 10 11 11 11 8 6 6 5 6 7 8 8 8 7 7 8 7 9 10 7 8 8 8 8 8 7
12 13 13 8 9 9 9 9 11 13 12 13 13 11 12 11 10 10 11 10 8 6 6 5 6 8 7 7 7 7 7 8 6 8 8 9 8 9 10 9 8 8
12 15 10 9 11 10 10 11 11 12 12 14 13 11 10 10 11 10 11 10 8 6 6 6 7 8 4 7 9 8 6 5 8 10 8 8 7 10 10 10 9 8
6 9 11 9 11 10 12 11 14 11 11 13 11 10 9 7 11 9 10 10 9 8 7 5 6 5 6 8 7 8 11 9 8 8 6 6 7 9 10 10 9 8
11 9 9 14 10 13 16 15 11 11 10 11 11 8 7 11 10 8 9 10 11 8 7 6 6 6 7 5 5 8 10 9 8 7 7 8 7 8 9 10 9 9
14 12 8 6 10 14 13 11 13 11 9 8 9 9 9 11 9 6 9 9 9 9 6 6 7 7 7 6 6 6 7 7 7 9 10 11 8 7 9 9 9 7
10 7 17 11 12 13 12 11 11 10 9 9 9 9 9 9 7 9 9 8 8 9 8 9 11 11 8 6 6 6 7 10 11 10 10 12 9 7 9 9 9 7
8 10 9 13 11 13 12 11 11 11 10 9 10 10 7 7 7 11 11 8 12 17 17 16 15 14 14 12 6 8 7 7 8 7 7 8 9 9 9 10 8 5
13 14 10 7 13 12 13 11 10 9 8 9 9 8 7 7 8 10 16 18 20 18 17 17 18 15 13 12 9 11 6 7 7 8 10 9 7 9 10 12 10 9
12 11 15 10 9 12 11 10 9 9 10 9 8 6 6 8 8 15 17 19 18 17 17 17 15 12 14 13 10 9 10 10 6 8 7 9 13 13 11 11 11 10
13 9 8 10 9 13 10 10 11 11 10 10 12 13 16 16 20 17 16 17 16 17 17 16 13 13 11 10 14 15 11 11 11 10 5 8 11 13 11 10 8 9
15 14 14 14 9 9 11 13 15 15 17 15 16 17 17 19 19 16 15 15 16 17 17 14 12 12 10 12 13 15 10 9 10 11 12 9 10 13 13 12 11 13
16 19 19 18 14 12 12 15 16 17 19 19 16 14 17 18 15 16 15 13 16 18 17 14 13 13 14 12 12 13 11 8 9 10 13 13 15 15 14 14 13 14
18 20 19 15 14 12 13 16 18 17 16 16 17 17 18 16 16 16 14 14 14 15 14 13 13 14 14 12 10 12 10 7 8 11 14 16 15 15 15 14 12 12
19 19 18 15 17 12 15 17 17 17 18 17 19 17 16 16 14 15 13 12 12 12 14 14 15 16 15 15 15 14 13 7 11 12 15 15 13 12 12 12 11 11
17 18 17 17 16 15 15 18 16 17 18 16 19 17 15 16 15 14 14 14 13 14 15 14 14 18 18 18 17 14 11 11 11 14 15 14 13 11 10 8 8 10
14 16 16 16 15 17 15 16 17 15 12 13 17 15 16 18 16 14 13 14 15 15 15 14 14 16 16 14 12 9 6 8 9 12 13 14 13 12 13 13 12 11
15 15 16 15 14 14 14 13 14 12 12 11 16 16 17 14 14 16 15 15 16 16 14 16 14 15 16 14 12 10 8 10 11 14 14 15 14 12 13 15 18 19
15 15 15 15 16 14 12 14 15 14 12 14 15 16 15 12 12 16 15 15 14 14 12 16 14 14 15 15 17 16 14 11 12 14 14 12 14 14 13 14 14 13
13 14 13 13 14 14 14 13 12 14 14 15 14 15 15 14 14 15 15 13 11 12 14 13 15 14 15 17 18 18 16 16 14 16 14 11 12 14 14 12 11 10